sat.trackr.live / text

‹ back to catalog

STARLINK-5451

NORAD 54771 · 2022-175P

PAYLOAD ACTIVE UNKNOWN

§ Identity

Operator
Country
US
Launch date
2022-12-17
Launch site
AFETR
Launch vehicle
Mass (kg)
RCS (m²)

Purposes: comms

External: N2YO · Heavens-Above · Gunter

§ Orbital elements

Epoch: 2026-05-25T01:47:37.739904Z

Period
95.44 min
Inclination
53.2150°
Eccentricity
0.0001457
Mean motion
15.08841543 rev/d
Perigee alt
538.7 km
Apogee alt
540.7 km
Semi-major
6,917.9 km
B*
3.7286e-5
RAAN
56.0130°
Arg perigee
100.6866°
Mean anomaly
259.4290°
Rev number
19,152

§ Raw data

STARLINK-54511 54771U 22175P   26145.07474236  .00000306  00000+0  37286-4 0  99902 54771  53.2150  56.0130 0001457 100.6866 259.4290 15.08841543191529

JSON: /api/v1/satellites/54771 · /tle

For live sub-satellite position, see the globe view (requires WebGL).

§ Visibility from observer

Set your observer location to see the next 7 days of passes ≥ 10°. The values pass through the URL so the page stays shareable.

No JS? Fill the form by hand. The geolocation button needs JavaScript.